This is the latest recevied weather packets stored in our database for station/object OK5TVR-5. If no packets are shown the sender has not sent any weather packets the latest 10 day(s).
| Time | Temp. | Humidity | Pressure | Rain* | Wind** | Luminosity | Snow |
|---|---|---|---|---|---|---|---|
| 1787963063 | 16.11° C | 92% | 1009.2 hPa | 0.51 mm | - | 0 W/m² | - |
| 1787962163 | 16.67° C | 91% | 1008.5 hPa | 0.76 mm | - | 0 W/m² | - |
| 1787961263 | 16.11° C | 91% | 1009.1 hPa | 1.27 mm | - | 0 W/m² | - |
| 1787960363 | 16.11° C | 95% | 1009.7 hPa | 1.78 mm | - | 0 W/m² | - |
| 1787959463 | 16.67° C | 94% | 1009.4 hPa | 1.78 mm | - | 0 W/m² | - |
| 1787958563 | 17.22° C | 96% | 1009.4 hPa | 1.27 mm | - | 0 W/m² | - |
| 1787957668 | 17.22° C | 97% | 1009.5 hPa | 1.02 mm | - | 0 W/m² | - |
| 1787957667 | 17.22° C | 97% | 1009.5 hPa | 1.02 mm | - | 0 W/m² | - |
| 1787957663 | 17.22° C | 97% | 1009.5 hPa | 1.02 mm | - | 0 W/m² | - |
| 1787956765 | 17.22° C | 97% | 1009.3 hPa | 1.02 mm | - | 0 W/m² | - |
| 1787955869 | 17.78° C | 96% | 1008.9 hPa | 1.27 mm | - | 0 W/m² | - |
| 1787955868 | 17.78° C | 96% | 1008.9 hPa | 1.27 mm | - | 0 W/m² | - |
| 1787955863 | 17.78° C | 96% | 1008.9 hPa | 1.27 mm | - | 0 W/m² | - |
| 1787955863 | 17.78° C | 96% | 1008.9 hPa | 1.27 mm | - | 0 W/m² | - |
| 1787954968 | 17.22° C | 97% | 1008.7 hPa | 2.03 mm | - | 0 W/m² | - |
| 1787954963 | 17.22° C | 97% | 1008.7 hPa | 2.03 mm | - | 0 W/m² | - |
| 1787954063 | 17.78° C | 95% | 1008.5 hPa | 3.56 mm | - | 0 W/m² | - |
| 1787953186 | 18.33° C | 91% | 1009.2 hPa | 3.81 mm | - | 0 W/m² | - |
| 1787952263 | 18.33° C | 91% | 1008.3 hPa | 4.57 mm | - | 0 W/m² | - |
| 1787951363 | 18.89° C | 91% | 1007.9 hPa | 3.81 mm | - | 0 W/m² | - |
| 1787950467 | 18.89° C | 91% | 1007.8 hPa | 2.03 mm | - | 0 W/m² | - |
| 1787950463 | 18.89° C | 91% | 1007.8 hPa | 2.03 mm | - | 0 W/m² | - |
| 1787949563 | 18.89° C | 88% | 1007.9 hPa | 1.27 mm | - | 0 W/m² | - |
| 1787948663 | 19.44° C | 87% | 1007.8 hPa | 0.25 mm | - | 0 W/m² | - |
| 1787947763 | 19.44° C | 85% | 1007.6 hPa | 0 mm | - | 0 W/m² | - |
* Rain latest hour (hover to see other rain measurements)
** Current wind speed in m/s (hover to see current wind gust speed)